Georgetown, DE

4:39 PM EDT on August 30, 2016 (GMT -0400)
Sussex County

Weather History for KGED - April, 2013

Change the Weather History Date:

Sunday, April 7, 2013

  Actual Average Record
Temperature  
Mean Temperature 48 °F 52 °F  
Max Temperature 65 °F 62 °F 89 °F (2010)
Min Temperature 31 °F 41 °F 22 °F (1982)
Degree Days  
Heating Degree Days 17 14  
Month to date heating degree days 139 103  
Since 1 July heating degree days 3851 4015  
Cooling Degree Days 0 0  
Month to date cooling degree days 0 0  
Year to date cooling degree days 0 2  
Moisture  
Dew Point 38 °F    
Average Humidity 67    
Maximum Humidity 89    
Minimum Humidity 44    
Precipitation  
Precipitation 0.00 in 0.13 in 1.71 in (1971)
Month to date precipitation 0.93 0.99  
Year to date precipitation 9.48 10.75  
Sea Level Pressure  
Sea Level Pressure 30.19 in    
Wind  
Wind Speed 9 mph (South)    
Max Wind Speed 21 mph    
Max Gust Speed 26 mph    
Visibility 10 miles    
Events      
T = Trace of Precipitation, MM = Missing Value Source: NWS Daily Summary

Daily Weather History Graph

Daily Weather History Graph

Search for Another Location

Airport or City:

Trip Planner

Search our weather history database for the weather conditions in past years. The results will help you decide how hot, cold, wet, or windy it might be!

Date:

Astronomy

Apr. 07, 2013 Rise Set
Actual Time 6:36 AM EDT 7:30 PM EDT
Civil Twilight 6:09 AM EDT 7:57 PM EDT
Nautical Twilight 5:37 AM EDT 8:30 PM EDT
Astronomical Twilight 5:04 AM EDT 9:03 PM EDT
Moon 4:51 AM EDT (4/7) 5:01 PM EDT (4/7)
Length of Visible Light 13h 48m
Length of Day
12h 54m
Waning Crescent, 8% of the Moon is Illuminated
Apr 7
Waning Crescent
Apr 10
New
Apr 18
First Quarter
Apr 25
Full
May 2
Last Quarter

Hourly Weather History & Observations

Time (EDT) Temp. Windchill Dew Point Humidity Pressure Visibility Wind Dir Wind Speed Gust Speed Precip Events Conditions
12:54 AM 36.0 °F 33.3 °F 30.0 °F 79% 30.34 in 10.0 mi South 3.5 mph - N/A   Clear
1:54 AM 34.0 °F - 30.0 °F 85% 30.33 in 10.0 mi Calm Calm - N/A   Clear
2:54 AM 33.1 °F - 28.9 °F 85% 30.30 in 10.0 mi Calm Calm - N/A   Clear
3:54 AM 32.0 °F - 28.9 °F 88% 30.29 in 10.0 mi Calm Calm - N/A   Clear
4:54 AM 33.1 °F 30.0 °F 28.9 °F 85% 30.28 in 10.0 mi SE 3.5 mph - N/A   Clear
5:54 AM 37.0 °F - 30.9 °F 79% 30.29 in 10.0 mi Calm Calm - N/A   Clear
6:54 AM 37.0 °F - 32.0 °F 82% 30.30 in 10.0 mi Calm Calm - N/A   Clear
7:54 AM 39.9 °F 37.8 °F 35.1 °F 83% 30.31 in 10.0 mi South 3.5 mph - N/A   Clear
8:54 AM 46.9 °F - 37.0 °F 68% 30.29 in 10.0 mi SSE 12.7 mph - N/A   Clear
9:54 AM 53.1 °F - 39.0 °F 59% 30.28 in 10.0 mi SSW 11.5 mph - N/A   Clear
10:54 AM 57.0 °F - 39.0 °F 51% 30.27 in 10.0 mi SSW 12.7 mph - N/A   Clear
11:54 AM 59.0 °F - 39.0 °F 48% 30.23 in 10.0 mi South 11.5 mph - N/A   Clear
12:54 PM 61.0 °F - 41.0 °F 48% 30.19 in 10.0 mi South 15.0 mph 25.3 mph N/A   Clear
1:54 PM 63.0 °F - 42.1 °F 46% 30.16 in 10.0 mi South 17.3 mph 23.0 mph N/A   Clear
2:54 PM 64.0 °F - 42.1 °F 45% 30.12 in 10.0 mi SSW 17.3 mph 26.5 mph N/A   Clear
3:54 PM 64.0 °F - 43.0 °F 46% 30.10 in 10.0 mi South 13.8 mph 23.0 mph N/A   Clear
4:54 PM 64.0 °F - 44.1 °F 48% 30.09 in 10.0 mi South 12.7 mph - N/A   Clear
5:54 PM 62.1 °F - 44.1 °F 52% 30.04 in 10.0 mi South 18.4 mph - N/A   Clear
6:54 PM 60.1 °F - 44.1 °F 55% 30.07 in 10.0 mi South 11.5 mph - N/A   Clear
7:54 PM 57.0 °F - 43.0 °F 59% 30.07 in 10.0 mi South 9.2 mph - N/A   Clear
8:54 PM 55.0 °F - 43.0 °F 64% 30.07 in 10.0 mi South 10.4 mph - N/A   Clear
9:54 PM 55.0 °F - 44.1 °F 67% 30.08 in 10.0 mi South 9.2 mph - N/A   Clear
10:54 PM 54.0 °F - 44.1 °F 69% 30.07 in 10.0 mi South 9.2 mph - N/A   Clear
11:54 PM 54.0 °F - 43.0 °F 66% 30.07 in 10.0 mi SSW 10.4 mph - N/A   Clear